STARLINK-34069, 64920

Orbit data source: Space-Track

STARLINK-34069, 64920 is a payload satellite owned by SpaceX/Seattle (US) in LEO that was launched on Sat, 26 Jul 2025 UTC via an FALCON 9 launch vehicle from the Air Force Eastern Test Range (AFETR). Payload-class satellites include a variety of spacecraft equipped with specific instruments for various scientific and technological missions. These include communications satellites like Starlink; space stations such as the ISS; scientific satellites like the Hubble; Earth observation satellites from companies like Planet Labs, Umbra, and HawkEye 360; GPS; miniature CubeSats for education and research; and military/defense satellites.

Loading next visibility...
Identifier
64920, 2025-157S
Orbit
LEO
Country
Flag of USUS
Related business
Manufacturer
SpaceX/Seattle
Mission
Operational spacecraft
Bus & Motor
STARLINK V2MO, Unknown motor
Mass
575 kg wet, ~530 kg dry
Launch date (UTC)
2025-07-26 (4 months ago)
Launch vehicle
FALCON 9
Launch site
Air Force Eastern Test Range (AFETR)
Object type
Payload
Rocket body
Debris
Shape & HBR
Unknown shape, 17.7 m
Radar Cross Section
Large (>1 m²)

Expand to show TLE details & history
Last TLE update: 2 days ago

TLE from 2 days ago
0 STARLINK-34069
1 64920U 25157S   25312.64805731  .00100834  00000-0  24909-2 0  9990
2 64920  53.1593 194.1584 0001456 243.5679 116.5176 15.39702597 17501
Epoch: 2025-11-08T15:33Z
TLE epoch observation values (Epoch: 2025-11-08T15:33:12.151Z)
Latitude
-0.00007°
Longitude
-87.21694°
Altitude
448.335 km
Speed
7.644 km/s
True Right ascension
12h 56m 38s
True Declination
0° 00' 00"
Sunlit
Object was in daylight at epoch
Visualization orbit readout
Latitude
Unknown
Longitude
Unknown
Altitude
Unknown
Speed
Unknown
Apparent Right ascension
Unknown
Apparent Declination
Unknown
Sunlit
N/A
Visualization observer readout
Local Sidereal Time
02:48:11
Azimuth
Unknown
Elevation
Unknown
Doppler factor
Unknown
Orbital elements
Apogee altitude
448.239 km
Perigee altitude
446.252 km
Semi-major axis
6,825.383 km
Eccentricity
0.00015
Inclination
53.1593°
RAAN
194.1584°
Arg. of periapsis
243.5679°
True anomaly
116.53253°
Mean anomaly
116.5176°
Eccentric anomaly
116.52506°
Mean motion
3.84904 °/min
Orbital period
93.53 mins
BSTAR
0.0024909
Loading maneuver chart data...
Computing Atmospheric mass density...
Loading historical data...
Loading historical data...
Loading historical data...
Loading historical data...
Loading historical data...
Loading historical data...
Loading historical data...

Documentation

Showing up to 5 results
|